GFSNE_sfc_thetae_021.txt.gz
Theta_e
336 337 337 337 335 340 341 334 331 319 319 320 321 326 330 329 327 325 326 326 325 322 321 322 323 325 325 326 327 328 329 328 328 326 326 325 325 325
334 331 333 336 330 336 334 334 335 326 318 322 321 324 326 326 328 327 326 325 322 321 321 321 321 322 322 323 325 326 326 325 324 323 322 321 321 320
329 327 331 333 335 332 330 331 329 327 318 320 322 324 322 323 325 327 327 326 323 320 320 320 319 319 322 323 323 322 320 319 318 317 317 317 317 316
326 328 328 330 333 333 332 328 325 325 320 316 320 322 322 325 325 324 325 326 323 321 319 318 317 318 318 314 313 313 312 313 314 314 314 314 313 312
327 325 325 327 328 327 326 325 324 324 322 319 320 322 322 322 322 323 323 325 325 320 316 315 314 313 312 310 308 307 306 305 306 307 308 309 308 308
332 329 326 329 327 327 326 326 325 322 322 321 320 320 320 322 322 319 319 319 320 322 316 315 313 310 309 308 307 306 303 302 301 301 301 301 302 303
331 329 331 326 322 325 326 326 325 323 322 320 319 319 319 319 318 320 317 318 321 321 315 315 315 313 311 308 307 305 302 301 300 300 299 299 299 299
331 329 329 325 319 314 315 318 323 323 321 320 319 318 319 320 320 320 319 318 318 326 322 318 318 316 313 306 302 301 300 300 299 299 299 298 298 297
332 328 330 330 327 321 312 312 313 313 317 323 320 320 319 321 321 322 321 324 322 325 321 315 317 309 306 301 300 299 299 298 298 298 298 297 297 296
334 334 333 331 330 327 327 325 324 325 325 325 325 323 322 324 325 325 330 328 325 322 323 312 315 308 306 301 299 298 298 297 297 297 297 296 296 297
332 334 333 331 306 310 327 324 320 317 312 310 310 308 306 312 319 328 325 320 316 319 325 317 314 309 307 303 300 298 297 297 296 296 296 296 296 295
332 325 309 320 303 309 327 327 322 321 323 323 322 317 316 320 309 334 329 322 321 319 327 319 315 313 308 308 303 299 298 297 297 296 296 296 295 304
329 327 326 300 304 306 315 328 322 327 321 329 328 329 331 330 330 333 334 332 324 325 327 326 319 317 318 310 310 309 309 302 303 299 296 296 296 296
328 328 320 299 301 306 318 303 303 315 331 330 328 328 327 326 329 336 337 332 335 334 329 333 321 320 318 312 307 307 308 308 307 306 306 299 297 297
329 313 299 297 298 305 300 303 304 327 327 326 325 325 326 330 336 333 330 328 330 328 327 327 324 327 319 309 308 305 306 307 307 306 305 304 303 304
308 316 317 310 304 311 313 314 328 331 328 327 328 329 330 330 328 328 322 320 317 315 317 318 319 318 310 309 307 305 304 303 306 305 304 304 304 303
327 329 328 329 325 322 323 325 328 329 327 327 326 325 325 325 324 323 320 318 314 311 308 309 313 315 307 308 304 305 304 304 304 303 302 301 302 302
326 327 327 327 326 325 324 324 325 321 325 325 324 323 321 321 320 321 320 317 314 311 308 307 307 304 303 300 296 303 303 302 302 302 301 297 297 300
327 327 327 327 326 326 326 325 324 326 329 326 325 323 322 321 317 318 318 317 317 313 309 308 305 301 296 296 295 290 300 300 299 298 298 297 295 298
327 325 325 326 327 326 326 325 325 327 326 326 325 324 323 321 319 318 318 318 318 315 310 308 305 304 302 302 299 292 287 297 296 295 295 296 297 294
321 322 323 323 323 324 325 326 327 326 326 327 327 326 325 322 321 319 319 306 309 315 309 306 306 289 303 302 296 292 290 289 290 293 292 290 291 293
321 320 323 325 325 324 323 322 322 323 325 327 327 327 326 325 323 322 319 318 315 314 309 306 301 299 298 297 295 294 294 292 290 290 287 288 289 287
325 325 324 324 326 327 326 325 324 323 323 324 325 326 326 324 325 324 321 320 316 313 307 298 297 297 295 295 292 293 292 294 295 293 293 290 289 290

GFSNE_sfc_thetae_024.txt.gz
Theta_e
328 330 329 330 333 331 330 327 321 316 316 319 320 328 329 332 329 326 325 324 324 322 322 322 323 325 325 326 326 327 328 327 328 329 328 326 326 325
329 328 328 330 328 329 328 327 325 320 314 321 321 324 326 326 327 324 324 325 323 322 322 321 321 321 322 323 324 325 324 323 323 323 323 322 321 320
327 327 327 328 329 326 326 326 323 321 316 319 322 324 323 323 324 325 326 325 323 321 322 320 318 318 320 320 321 320 320 319 318 319 319 319 317 316
325 327 326 328 327 328 325 324 322 322 319 315 319 321 322 323 323 323 324 325 323 321 319 318 317 317 315 314 313 313 313 313 314 314 314 314 314 313
325 324 325 326 326 325 325 323 321 321 321 318 318 321 321 322 321 322 320 321 322 320 316 315 314 313 311 310 309 308 307 306 307 308 309 309 309 308
327 324 325 326 325 325 324 323 321 320 320 319 318 317 318 319 320 318 317 320 319 320 315 313 311 309 308 307 307 306 303 302 301 301 302 302 303 303
328 327 326 325 322 324 324 321 321 321 320 318 316 316 316 317 315 315 315 316 315 313 309 308 307 307 306 307 307 305 302 301 300 300 300 298 298 299
324 326 324 321 317 313 316 316 321 321 319 318 317 316 316 316 315 316 315 315 310 314 312 309 309 308 304 301 303 301 300 300 299 299 298 298 297 297
327 328 328 326 323 321 312 312 312 312 316 321 318 318 316 317 317 314 315 316 314 317 313 308 307 301 300 299 300 299 298 298 298 298 297 297 296 296
331 329 328 325 324 325 324 322 323 323 323 323 322 321 321 321 320 316 321 320 318 317 315 306 305 301 300 297 299 298 297 297 297 297 297 296 296 296
331 330 329 326 307 310 324 322 321 320 311 310 308 306 305 310 317 323 319 314 312 313 316 309 305 302 299 297 296 298 297 296 296 296 296 295 295 296
328 321 310 319 307 309 323 321 319 320 321 320 318 312 312 315 310 325 321 314 314 311 316 311 306 305 300 299 295 294 294 297 296 296 295 296 296 299
325 322 316 303 303 306 314 323 320 322 316 323 323 322 323 325 322 326 326 320 317 316 320 317 309 308 310 301 298 296 296 295 294 294 296 296 296 295
325 323 310 301 304 307 316 303 303 314 324 324 324 323 324 323 325 327 327 327 328 325 323 321 313 311 310 304 301 302 302 299 299 298 295 296 296 296
327 309 297 299 299 304 303 302 306 325 325 323 322 323 325 326 325 327 325 324 324 323 325 323 319 315 315 311 303 300 301 302 302 301 301 294 294 295
308 312 310 308 309 311 309 309 326 328 326 325 325 327 325 325 327 325 319 319 313 310 311 311 312 314 310 305 303 301 302 299 301 300 298 297 300 298
321 323 324 320 320 321 323 324 325 327 324 324 323 323 325 326 325 324 319 315 311 307 305 307 305 301 297 301 301 300 299 299 300 298 296 296 297 298
323 324 324 322 319 321 321 322 324 322 325 326 326 324 323 323 322 320 318 314 311 308 304 304 303 300 298 295 296 299 299 299 299 299 297 293 292 293
326 325 324 325 323 321 321 322 322 323 325 323 321 321 320 320 312 317 317 314 312 308 305 304 302 299 295 293 292 291 298 297 296 295 294 294 291 292
326 325 325 325 325 324 323 322 323 323 323 325 323 321 320 319 317 316 316 313 313 311 305 304 302 299 295 295 293 287 288 295 294 292 291 291 291 291
324 325 327 327 327 327 326 325 325 324 323 323 323 322 320 319 317 316 315 305 307 313 306 302 301 294 299 298 291 289 288 290 291 291 288 286 287 288
324 324 323 325 324 324 324 325 325 321 322 324 323 324 322 321 318 318 317 314 312 313 307 299 299 298 296 295 289 289 289 290 290 291 290 290 287 283
321 320 319 319 324 322 321 320 319 320 322 322 323 323 323 321 321 320 318 316 314 311 299 296 295 295 294 294 290 290 290 290 291 288 289 291 291 291

GFSNE_sfc_thetae_030.txt.gz
Theta_e
322 321 320 321 321 321 317 318 315 310 313 319 317 328 331 329 333 331 329 326 324 321 321 322 323 324 324 325 326 326 327 327 328 329 329 329 327 326
321 322 323 322 322 321 319 318 316 314 313 319 320 326 330 329 330 328 326 325 322 321 320 319 319 320 321 321 322 323 324 324 323 324 324 324 323 321
318 320 321 320 319 323 321 317 315 314 314 319 322 324 326 325 326 325 326 323 321 319 318 318 317 317 318 318 318 319 320 320 319 320 320 320 319 318
320 319 321 323 322 322 321 319 317 316 318 316 319 320 321 323 323 321 322 322 320 319 318 317 316 315 313 313 313 314 313 314 315 315 316 316 316 314
322 319 320 322 322 321 321 320 321 322 320 318 317 321 321 321 319 320 320 320 321 320 316 315 314 313 313 311 310 310 308 308 308 309 311 312 311 309
324 322 323 323 322 321 320 320 321 320 320 318 318 318 318 319 319 316 315 317 315 315 312 312 311 311 310 310 310 309 306 304 304 304 304 304 304 305
323 325 324 323 321 320 321 320 320 319 318 317 316 316 316 315 314 316 313 312 311 311 308 307 305 305 306 309 310 308 304 303 302 302 301 300 300 301
322 321 321 318 315 312 313 313 318 318 317 316 315 314 314 315 315 313 312 310 305 310 306 303 303 300 300 300 304 302 301 301 300 300 300 299 298 298
323 322 321 319 318 318 311 311 310 309 314 319 316 315 314 316 315 313 313 311 308 307 304 298 297 295 297 300 301 300 299 299 298 298 298 297 297 296
324 323 320 321 320 320 320 319 319 319 319 320 318 318 318 318 317 316 312 308 307 306 303 296 296 294 295 295 299 299 298 297 297 297 297 296 295 295
324 324 322 321 305 307 320 318 317 315 307 304 304 303 302 305 312 314 309 306 302 302 305 299 297 294 293 292 294 298 297 297 296 296 297 296 295 295
323 320 308 314 301 305 320 319 316 316 316 316 314 308 309 308 309 314 312 307 304 303 306 299 297 295 293 294 292 293 293 297 296 296 297 297 296 292
321 320 315 300 300 302 309 319 315 317 312 317 317 315 317 315 315 313 312 310 306 305 308 302 298 297 296 293 291 291 290 289 291 292 296 295 295 293
321 320 311 299 300 301 309 299 302 311 318 316 317 315 313 315 318 314 313 312 312 313 310 306 301 300 298 292 292 291 289 288 289 288 289 293 295 294
318 311 299 298 298 300 299 301 305 320 318 315 313 312 313 314 315 316 316 314 313 312 313 309 305 303 302 299 297 293 290 290 290 289 290 290 290 290
306 307 306 306 304 307 308 310 319 318 317 315 313 313 314 314 314 315 313 311 310 305 302 304 308 306 304 302 299 296 296 296 292 292 293 293 293 294
310 314 316 316 314 315 318 320 320 318 317 315 314 314 315 315 314 313 312 308 308 304 300 294 293 297 296 302 299 297 297 296 296 294 294 292 294 296
314 315 312 313 315 317 318 318 318 316 319 317 316 316 316 315 315 313 311 309 307 304 300 294 293 293 292 291 295 295 295 295 293 294 292 291 291 293
314 313 313 314 315 316 317 319 318 319 319 319 317 316 316 317 311 317 315 310 307 305 302 297 294 294 292 292 289 292 293 292 292 291 291 290 290 293
317 316 313 314 316 317 317 318 317 317 317 320 318 318 318 319 317 318 317 314 313 304 301 298 296 295 298 299 290 287 288 291 290 289 289 287 286 289
315 317 317 315 314 316 317 317 317 317 316 317 319 318 319 319 317 318 317 305 305 305 305 302 303 292 291 289 286 286 286 290 291 292 290 288 285 286
318 318 317 318 317 316 316 317 317 313 313 315 318 319 318 319 318 317 315 313 308 312 309 303 294 293 291 292 287 285 285 286 290 291 291 290 286 283
320 320 319 318 319 320 319 317 316 316 315 315 315 316 318 316 317 317 315 313 311 309 298 293 292 291 290 290 286 285 286 287 288 288 290 292 292 292

GFSNE_sfc_thetae_033.txt.gz
Theta_e
320 319 318 318 317 316 315 320 313 308 312 315 320 327 329 329 333 331 330 326 325 323 322 322 323 324 324 324 326 326 327 327 327 328 328 329 328 326
319 321 318 320 318 318 316 316 316 313 310 316 321 326 328 330 333 329 327 325 323 322 321 320 320 320 320 319 322 324 324 324 324 325 326 325 324 322
317 319 319 318 317 319 317 316 313 313 313 318 322 326 326 326 326 326 326 324 322 321 320 319 317 318 316 316 318 319 321 321 320 321 321 321 320 320
318 318 319 322 321 321 318 316 313 314 317 316 319 320 323 323 324 322 322 322 320 319 318 317 316 314 314 313 313 314 314 315 316 317 317 317 317 315
321 318 322 321 320 319 320 318 317 318 319 317 317 320 319 321 319 319 318 318 320 320 317 316 314 313 312 311 311 310 309 308 309 310 312 313 312 311
323 322 323 323 321 321 320 320 320 319 319 318 317 317 317 319 318 315 314 316 312 314 313 313 312 313 311 310 311 310 307 305 305 305 305 305 305 306
322 324 323 322 320 320 321 321 320 318 318 317 315 315 315 315 313 314 311 311 310 312 309 308 308 308 308 311 312 309 305 304 303 302 302 301 300 301
321 321 321 318 315 312 313 314 318 319 318 316 315 314 314 314 314 313 311 309 305 310 305 302 303 300 301 302 305 303 303 302 302 301 300 299 299 298
322 320 319 318 317 315 310 310 310 310 315 319 315 315 314 315 314 312 311 309 307 306 305 298 299 295 298 300 301 301 300 300 300 299 299 298 297 296
322 321 320 319 318 319 318 317 317 318 319 320 318 318 317 317 316 315 312 306 307 305 303 296 295 293 294 294 300 299 298 297 298 298 298 297 295 295
322 322 321 319 303 306 318 315 313 312 307 305 305 303 301 304 310 312 309 308 304 303 302 297 295 292 292 292 293 299 297 297 297 297 297 296 295 295
320 318 307 312 301 305 318 316 313 314 315 315 313 309 310 307 307 313 311 307 302 301 305 297 294 293 292 293 292 293 293 297 296 296 296 296 295 291
319 317 312 299 300 301 308 318 314 315 311 316 315 315 316 314 311 310 309 309 303 302 305 300 295 294 294 292 290 290 291 290 292 292 296 296 295 293
319 317 307 297 299 300 308 298 300 309 316 315 312 312 313 312 310 309 309 309 310 310 306 302 298 297 296 291 292 289 289 288 289 288 288 292 295 295
320 309 297 296 297 301 298 299 304 316 315 313 312 310 311 313 312 310 309 309 307 309 308 305 302 300 299 298 296 291 288 289 288 287 288 288 289 290
305 306 304 304 303 305 306 309 319 315 316 314 311 309 311 316 312 312 311 310 308 305 302 303 305 303 301 301 299 295 293 294 288 288 289 289 290 290
311 314 316 316 315 316 317 318 316 317 315 311 312 311 311 312 311 312 311 308 308 305 302 296 295 300 298 302 299 298 296 295 293 290 289 290 292 292
317 317 316 316 316 317 317 318 316 312 314 314 312 313 312 312 311 311 310 309 307 306 302 294 293 294 293 293 298 299 296 295 294 293 292 291 290 293
315 316 315 316 317 318 319 318 318 319 316 317 316 315 315 314 309 313 311 309 307 306 303 296 294 295 294 297 291 292 296 293 292 291 290 290 291 292
315 314 313 314 317 318 318 319 318 317 317 317 317 315 315 315 312 313 314 312 311 306 303 299 294 294 298 303 298 289 289 291 291 290 288 288 287 289
314 315 314 315 316 317 318 319 318 317 317 315 316 315 316 316 316 315 315 303 305 306 307 306 306 293 293 292 291 288 286 290 293 290 289 290 288 288
314 315 314 314 315 316 317 318 316 312 314 316 317 318 317 317 317 317 316 314 312 313 310 307 295 292 291 295 297 289 285 285 289 293 293 292 289 288
316 316 316 316 315 315 315 316 316 316 316 316 316 317 317 316 318 318 317 316 316 312 311 298 292 291 291 292 291 283 285 284 286 285 288 291 292 292